When you browse on this site, cookies collect data to enhance your experience and personalize the content and advertising you see.
Visit our Privacy Policy to learn more. By continuing to use the site, you agree to this use of cookies and data.
  • In Hungary
  • List of Countries
  • For 7 days
  • Water Temperature
  • Weather Map
  • News
  • Weather Widgets
  • user-avatar
    Login

    Hourly Weather Bad Kissingen

    Today, 15 December, Sunday

    Time Temperature Precipitation Wind Pressure Humidity
    00:00 +3°C° 0 mm 4 mps 729 mmHg 88%
    01:00 +4°C° 0 mm 2 mps 730 mmHg 93%
    02:00 +4°C° 0.3 mm 2 mps 729 mmHg 94%
    03:00 +5°C° 0.3 mm 2 mps 728 mmHg 96%
    04:00 +4°C° 0.3 mm 3 mps 728 mmHg 97%
    05:00 +5°C° 1.5 mm 3 mps 727 mmHg 96%
    06:00 +5°C° 1.5 mm 4 mps 727 mmHg 96%
    07:00 +6°C° 1.5 mm 4 mps 726 mmHg 95%
    08:00 +7°C° 0.7 mm 5 mps 727 mmHg 93%
    09:00 +8°C° 0.7 mm 6 mps 727 mmHg 91%
    10:00 +8°C° 0.7 mm 7 mps 728 mmHg 89%
    11:00 +8°C° 1.6 mm 7 mps 728 mmHg 87%
    12:00 +7°C° 1.6 mm 6 mps 729 mmHg 86%
    13:00 +7°C° 1.6 mm 5 mps 730 mmHg 84%
    14:00 +7°C° 0.1 mm 5 mps 731 mmHg 84%
    15:00 +6°C° 0.1 mm 4 mps 732 mmHg 84%
    16:00 +6°C° 0.1 mm 4 mps 732 mmHg 83%
    17:00 +6°C° 0 mm 4 mps 733 mmHg 85%
    18:00 +5°C° 0 mm 3 mps 733 mmHg 86%
    19:00 +5°C° 0 mm 3 mps 733 mmHg 87%
    20:00 +5°C° 0.2 mm 3 mps 734 mmHg 89%
    21:00 +5°C° 0.2 mm 3 mps 734 mmHg 90%
    22:00 +5°C° 0.2 mm 3 mps 734 mmHg 92%
    23:00 +6°C° 0.3 mm 2 mps 734 mmHg 93%

    Tomorrow, 16 December, Monday

    Time Temperature Precipitation Wind Pressure Humidity
    00:00 +6°C° 0.3 mm 2 mps 735 mmHg 95%
    01:00 +7°C° 0.3 mm 1 mps 735 mmHg 96%
    02:00 +7°C° 0.2 mm 1 mps 735 mmHg 96%
    03:00 +7°C° 0.2 mm 1 mps 735 mmHg 97%
    04:00 +7°C° 0.2 mm 1 mps 735 mmHg 97%
    05:00 +7°C° 0.5 mm 1 mps 735 mmHg 97%
    06:00 +7°C° 0.5 mm 1 mps 735 mmHg 97%
    07:00 +7°C° 0.5 mm 1 mps 734 mmHg 98%
    08:00 +8°C° 0.2 mm 1 mps 735 mmHg 96%
    09:00 +8°C° 0.2 mm 1 mps 735 mmHg 94%
    10:00 +8°C° 0.2 mm 1 mps 735 mmHg 93%
    11:00 +8°C° 0 mm 2 mps 734 mmHg 88%
    12:00 +8°C° 0 mm 2 mps 734 mmHg 83%
    13:00 +9°C° 0 mm 2 mps 734 mmHg 79%
    14:00 +9°C° 0 mm 2 mps 733 mmHg 80%
    15:00 +8°C° 0 mm 2 mps 733 mmHg 82%
    16:00 +7°C° 0 mm 2 mps 733 mmHg 83%
    17:00 +7°C° 0 mm 2 mps 733 mmHg 84%
    18:00 +6°C° 0 mm 2 mps 733 mmHg 85%
    19:00 +6°C° 0 mm 2 mps 733 mmHg 87%
    20:00 +6°C° 0 mm 2 mps 733 mmHg 87%
    21:00 +6°C° 0 mm 1 mps 732 mmHg 87%
    22:00 +6°C° 0 mm 1 mps 732 mmHg 88%
    23:00 +6°C° 0 mm 1 mps 732 mmHg 88%

    Day after tomorrow, 17 December, Tuesday

    Time Temperature Precipitation Wind Pressure Humidity
    00:00 +6°C° 0 mm 1 mps 732 mmHg 88%
    01:00 +6°C° 0 mm 1 mps 732 mmHg 88%
    02:00 +6°C° 0 mm 1 mps 732 mmHg 88%
    03:00 +6°C° 0 mm 1 mps 732 mmHg 89%
    04:00 +6°C° 0 mm 1 mps 732 mmHg 89%
    05:00 +6°C° 0 mm 1 mps 732 mmHg 90%
    06:00 +6°C° 0 mm 1 mps 732 mmHg 90%
    07:00 +5°C° 0 mm 1 mps 732 mmHg 90%
    08:00 +6°C° 0 mm 1 mps 732 mmHg 89%
    09:00 +6°C° 0 mm 1 mps 733 mmHg 89%
    10:00 +6°C° 0 mm 1 mps 733 mmHg 89%
    11:00 +7°C° 0 mm 1 mps 733 mmHg 86%
    12:00 +8°C° 0 mm 1 mps 733 mmHg 84%
    13:00 +8°C° 0 mm 1 mps 733 mmHg 81%
    14:00 +8°C° 0 mm 1 mps 733 mmHg 84%
    15:00 +7°C° 0 mm 1 mps 733 mmHg 87%
    16:00 +7°C° 0 mm 1 mps 733 mmHg 89%
    17:00 +6°C° 0 mm 1 mps 733 mmHg 90%
    18:00 +6°C° 0 mm 1 mps 734 mmHg 90%
    19:00 +6°C° 0 mm 1 mps 734 mmHg 90%
    20:00 +6°C° 0 mm 1 mps 734 mmHg 90%
    21:00 +6°C° 0 mm 1 mps 734 mmHg 90%
    22:00 +6°C° 0 mm 1 mps 734 mmHg 91%
    23:00 +5°C° 0 mm 1 mps 734 mmHg 90%

    18 December, Wednesday

    Time Temperature Precipitation Wind Pressure Humidity
    00:00 +5°C° 0 mm 1 mps 734 mmHg 90%
    01:00 +5°C° 0 mm 1 mps 734 mmHg 90%
    02:00 +5°C° 0 mm 1 mps 734 mmHg 90%
    03:00 +5°C° 0 mm 1 mps 734 mmHg 90%
    04:00 +5°C° 0 mm 1 mps 735 mmHg 90%
    05:00 +5°C° 0 mm 1 mps 735 mmHg 90%
    06:00 +5°C° 0 mm 1 mps 735 mmHg 90%
    07:00 +5°C° 0 mm 1 mps 735 mmHg 90%
    08:00 +5°C° 0 mm 1 mps 735 mmHg 90%
    09:00 +6°C° 0 mm 1 mps 735 mmHg 89%
    10:00 +6°C° 0 mm 1 mps 736 mmHg 88%
    11:00 +7°C° 0 mm 1 mps 736 mmHg 86%
    12:00 +7°C° 0 mm 1 mps 736 mmHg 85%
    13:00 +7°C° 0 mm 0 mps 736 mmHg 83%
    14:00 +7°C° 0 mm 0 mps 736 mmHg 85%
    15:00 +6°C° 0 mm 0 mps 735 mmHg 87%
    16:00 +6°C° 0 mm 0 mps 735 mmHg 90%
    17:00 +7°C° 0 mm 1 mps 735 mmHg 89%
    18:00 +7°C° 0 mm 1 mps 735 mmHg 89%
    19:00 +7°C° 0 mm 1 mps 735 mmHg 89%
    20:00 +6°C° 0 mm 1 mps 735 mmHg 89%
    21:00 +6°C° 0 mm 1 mps 735 mmHg 90%
    22:00 +6°C° 0 mm 1 mps 735 mmHg 90%
    23:00 +6°C° 0 mm 1 mps 735 mmHg 90%

    19 December, Thursday

    Time Temperature Precipitation Wind Pressure Humidity
    00:00 +6°C° 0 mm 1 mps 734 mmHg 91%
    01:00 +5°C° 0 mm 1 mps 734 mmHg 92%
    02:00 +5°C° 0 mm 1 mps 734 mmHg 92%
    03:00 +5°C° 0 mm 1 mps 734 mmHg 92%
    04:00 +5°C° 0 mm 1 mps 734 mmHg 92%
    05:00 +5°C° 0 mm 1 mps 734 mmHg 93%
    06:00 +4°C° 0 mm 1 mps 734 mmHg 93%
    07:00 +4°C° 0 mm 1 mps 734 mmHg 93%
    08:00 +5°C° 0 mm 1 mps 734 mmHg 92%
    09:00 +5°C° 0 mm 1 mps 734 mmHg 92%
    10:00 +5°C° 0 mm 1 mps 734 mmHg 91%
    11:00 +6°C° 0 mm 1 mps 733 mmHg 89%
    12:00 +7°C° 0 mm 1 mps 733 mmHg 87%
    13:00 +8°C° 0 mm 1 mps 732 mmHg 84%
    14:00 +7°C° 0 mm 1 mps 732 mmHg 87%
    15:00 +7°C° 0 mm 1 mps 732 mmHg 90%
    16:00 +6°C° 0 mm 1 mps 731 mmHg 92%
    17:00 +6°C° 0 mm 1 mps 731 mmHg 93%
    18:00 +5°C° 0 mm 1 mps 731 mmHg 93%
    19:00 +5°C° 0 mm 1 mps 731 mmHg 94%
    20:00 +5°C° 0 mm 1 mps 731 mmHg 94%
    21:00 +5°C° 0 mm 1 mps 731 mmHg 95%
    22:00 +5°C° 0 mm 1 mps 731 mmHg 95%
    23:00 +4°C° 0 mm 1 mps 731 mmHg 95%

    20 December, Friday

    Time Temperature Precipitation Wind Pressure Humidity
    00:00 +4°C° 0 mm 1 mps 730 mmHg 95%
    01:00 +4°C° 0 mm 1 mps 729 mmHg 96%
    02:00 +4°C° 0 mm 1 mps 729 mmHg 96%
    03:00 +4°C° 0 mm 1 mps 729 mmHg 96%
    04:00 +3°C° 0 mm 1 mps 728 mmHg 96%
    05:00 +3°C° 0 mm 1 mps 728 mmHg 96%
    06:00 +4°C° 0 mm 1 mps 727 mmHg 96%
    07:00 +4°C° 0 mm 1 mps 727 mmHg 96%
    08:00 +3°C° 0 mm 2 mps 727 mmHg 95%
    09:00 +3°C° 0 mm 2 mps 726 mmHg 94%
    10:00 +4°C° 0 mm 2 mps 726 mmHg 93%
    11:00 +5°C° 0 mm 2 mps 725 mmHg 91%
    12:00 +4°C° 0 mm 3 mps 725 mmHg 88%
    13:00 +5°C° 0 mm 3 mps 724 mmHg 85%
    14:00 +5°C° 0 mm 3 mps 723 mmHg 86%
    15:00 +5°C° 0 mm 3 mps 722 mmHg 87%
    16:00 +5°C° 0 mm 3 mps 721 mmHg 87%
    17:00 +5°C° 0 mm 3 mps 721 mmHg 88%
    18:00 +5°C° 0 mm 2 mps 720 mmHg 89%
    19:00 +5°C° 0 mm 2 mps 720 mmHg 90%
    20:00 +5°C° 0 mm 2 mps 719 mmHg 91%
    21:00 +4°C° 0 mm 2 mps 719 mmHg 92%
    22:00 +4°C° 0 mm 2 mps 719 mmHg 93%
    23:00 +5°C° 0 mm 1 mps 719 mmHg 93%
    Show more